Regional Weather Roundup
Issued by NWS

Home | Current Version | Previous Version | Text Only | Print | Product List | Glossary Off
Versions: 1 2 3 4 5 6 7 8 9 10 11 12 13 14 15 16 17 18 19 20 21 22 23 24 25 26 27 28 29 30 31 32 33 34 35 36 37 38 39 40 41 42 43 44 45 46 47 48 49 50

000
ASUS43 KLSX 062059
RWRMO

WEATHER SUMMARY FOR MISSOURI
NATIONAL WEATHER SERVICE SPRINGFIELD MO
400 PM CDT WED MAY 06 2015

NOTE: "FAIR" INDICATES FEW OR NO CLOUDS BELOW 12,000 FEET WITH NO
       SIGNIFICANT WEATHER AND/OR OBSTRUCTIONS TO VISIBILITY.
       CURRENT SKY AND/OR WEATHER CONDITIONS ARE NOT AVAILABLE FOR
       CHILLICOTHE AND FARMINGTON.

MOZ001>031-035>038-043-044-053-054-062200-
...NORTHERN AND WESTERN MISSOURI...

CITY           SKY/WX    TMP DP  RH WIND       PRES   REMARKS
KANSAS CTY INT TSTM      66  58  75 S21G29    29.93S
KANSAS C DTWN  CLOUDY    65  59  81 S16G25    29.95R
LEE`S SUMMIT   LGT RAIN  65  62  90 SW8       29.97S FOG
ST JOSEPH      CLOUDY    73  60  63 S25G32    29.89F
CHILLICOTHE      N/A     73  61  65 S13G23    29.97F
KIRKSVILLE     PTSUNNY   72  59  63 SW18G29   30.00F

$$
MOZ066>068-077>081-088>096-101>105-062200-
...SOUTHWEST MISSOURI...

CITY           SKY/WX    TMP DP  RH WIND       PRES   REMARKS
SPRINGFIELD    MOSUNNY   77  55  46 S22G30    29.99F
JOPLIN         MOSUNNY   80  55  42 SE25G36   29.92F

$$
MOZ032>034-039>042-045>050-055>058-069>072-062200-
...CENTRAL MISSOURI...

CITY           SKY/WX    TMP DP  RH WIND       PRES   REMARKS
COLUMBIA       CLOUDY    78  58  49 S12       30.00F
JEFFERSON CITY PTSUNNY   80  57  45 SE9       29.98F
ROLLA          MOSUNNY   79  52  38 SE16G24   30.01F
SEDALIA        CLOUDY    77  63  61 S14       29.98F
OSAGE BEACH    CLOUDY    81  55  41 S14G21    30.00F

$$
MOZ051-052-059>065-062200-
...EAST CENTRAL MISSOURI...

CITY           SKY/WX    TMP DP  RH WIND       PRES   REMARKS
ST LOUIS INTL  MOSUNNY   87  51  28 SE16G25   30.04F
SPIRIT OF STL  MOSUNNY   84  52  33 S10       30.01F
ST CHARLES     MOSUNNY   86  52  30 S21G29    30.01F

$$
MOZ072>076-082>087-097>100-106>115-062200-
...SOUTH CENTRAL AND SOUTHEAST MISSOURI...

CITY           SKY/WX    TMP DP  RH WIND       PRES   REMARKS
CAPE GIRARDEAU MOSUNNY   82  56  40 SE13      30.06F
FARMINGTON     MOSUNNY   81  52  36 S15       30.10F
POPLAR BLUFF   MOSUNNY   84  51  31 S14       30.04F
WEST PLAINS    PTSUNNY   79  52  38 SE15G22   30.06F

$$


USA.gov is the U.S. government's official web portal to all federal, state and local government web resources and services.